Location: Davidschlag
(48.4333°N, 14.2833°E)
Time: 07:27:57
(UTC+00:00)

Meteor 2-13 Rocket - Pass Details

Date: 27 February 2020
Orbit: 935 x 958 km, 82.5° (Epoch: 30 March)

Event Time Altitude Azimuth Distance (km) Brightness Sun altitude
Rises 18:57:11 0° 353° (N) 3,612 7.8 -22.9°
Reaches altitude 10° 18:59:46 10° 358° (N) 2,661 7.0 -23.4°
Maximum altitude 19:05:41 52° 75° (ENE) 1,152 4.5 -24.3°
Enters shadow 19:05:46 52° 77° (ENE) 1,152 4.5 -24.3°
